Regional Weather Roundup
Issued by NWS

Home | Current Version | Previous Version | Text Only | Print | Product List | Glossary On
Versions: 1 2 3 4 5 6 7 8 9 10 11 12 13 14 15 16 17 18 19 20 21 22 23 24 25 26 27 28 29 30 31 32 33 34 35 36 37 38 39 40 41 42 43 44 45 46 47 48 49
000
ASUS46 KSEW 300010
RWRWA

WASHINGTON REGIONAL WEATHER ROUNDUP
NATIONAL WEATHER SERVICE SEATTLE WA
500 PM PDT SUN MAR 29 2015

NOTE:"FAIR" INDICATES FEW OR NO CLOUDS BELOW 12,000 FEET WITH NO
SIGNIFICANT WEATHER AND/OR OBSTRUCTIONS TO VISIBILITY.

WAZ505-507>509-300100-
SEATTLE, TACOMA, EVERETT, AND VICINITY

CITY           SKY/WX    TMP DP  RH WIND       PRES   REMARKS
EVERETT        CLOUDY    58  44  60 S15G25    30.18S
6HR MIN TEMP:  53; 6HR MAX TEMP:  59;

BOEING FIELD   CLOUDY    63  44  50 S8        30.19F
6HR MIN TEMP:  56; 6HR MAX TEMP:  63;

RENTON         CLOUDY    62  43  49 S7        30.19F
6HR MIN TEMP:  55; 6HR MAX TEMP:  62;

SEATAC AIRPORT CLOUDY    59  43  55 SW8       30.21F
6HR MIN TEMP:  53; 6HR MAX TEMP:  60;

JBLM-MCCHORD   CLOUDY    62  47  59 W8        30.19F
6HR MIN TEMP:  55; 6HR MAX TEMP:  62;

PUYALLUP       CLOUDY    61  46  59 CALM      30.20S
BREMERTON      CLOUDY    57  50  77 SW16      30.21S
6HR MIN TEMP:  54; 6HR MAX TEMP:  59;

JBLM-FT LEWIS  CLOUDY    62  48  60 SW8       30.19S
6HR MIN TEMP:  56; 6HR MAX TEMP:  62;

TACOMA NARROWS CLOUDY    59  44  57 W5        30.20F
6HR MIN TEMP:  53; 6HR MAX TEMP:  61;

$$

WAZ001-503-506-510-514-515-300100-
NORTH INTERIOR

CITY           SKY/WX    TMP DP  RH WIND       PRES   REMARKS
BELLINGHAM     LGT RAIN  52  49  89 NE5       30.17F FOG
6HR MIN TEMP:  52; 6HR MAX TEMP:  56; 6HR PCP:  0.23;

FRIDAY HARBOR  LGT RAIN  55  50  83 N5        30.17F
6HR MIN TEMP:  52; 6HR MAX TEMP:  56;

EASTSOUND      LGT RAIN  54  50  87 CALM      30.15F
PORT ANGELES   CLOUDY    53  49  86 N5        30.16F
6HR MIN TEMP:  52; 6HR MAX TEMP:  57; 6HR PCP: TRACE;

NAS WHIDBEY    CLOUDY    62  46  55 SE14      30.16F
6HR MIN TEMP:  57; 6HR MAX TEMP:  62;

ARLINGTON      CLOUDY    57  45  62 SE10      30.19S
6HR MIN TEMP:  55; 6HR MAX TEMP:  63;

BURLINGTON     CLOUDY    59  46  63 MISG      30.17S
$$

WAZ020-022-039-040-504-511-512-300100-
SOUTHWEST INTERIOR

CITY           SKY/WX    TMP DP  RH WIND       PRES   REMARKS
SHELTON        CLOUDY    54  51  90 SW8       30.18F FOG
6HR MIN TEMP:  53; 6HR MAX TEMP:  58; 6HR PCP:  0.01;

OLYMPIA        CLOUDY    61  45  55 SW12      30.20S
6HR MIN TEMP:  54; 6HR MAX TEMP:  62;

CHEHALIS       MOCLDY    64  48  55 VRB3      30.20S
KELSO          CLOUDY    66  45  45 CALM      30.23F
6HR MIN TEMP:  55; 6HR MAX TEMP:  68;

VANCOUVER      PTSUNNY   66  40  38 VRB5      30.18F
6HR MIN TEMP:  55; 6HR MAX TEMP:  68;

SCAPPOOSE, OR  PTSUNNY   66  42  41 N5        30.18F
6HR MIN TEMP:  56; 6HR MAX TEMP:  67;

PORTLAND, OR   PTSUNNY   68  40  35 N5        30.19F
6HR MIN TEMP:  55; 6HR MAX TEMP:  68;

$$

WAZ021-516-517-300100-
WASHINGTON COAST

CITY           SKY/WX    TMP DP  RH WIND       PRES   REMARKS
FORKS          LGT RAIN  53  53 100 S9        30.15F VSB 1
6HR MIN TEMP:  51; 6HR MAX TEMP:  54; 6HR PCP:  0.84;

HOQUIAM        CLOUDY    54  52  93 S15       30.20F FOG
6HR MIN TEMP:  53; 6HR MAX TEMP:  54; 6HR PCP: TRACE;

ASTORIA, OR    CLOUDY    57  49  74 SW9       30.21F
6HR MIN TEMP:  54; 6HR MAX TEMP:  58;

$$

WAZ019-023-024-040-518-519-300100-
CASCADE MOUNTAINS AND COLUMBIA GORGE

CITY           SKY/WX    TMP DP  RH WIND       PRES   REMARKS
TROUTDALE, OR  PTSUNNY   68  38  33 NW5       30.17F
6HR MIN TEMP:  56; 6HR MAX TEMP:  68;

THE DALLES, OR MOSUNNY   69  35  28 NW16G24   30.13F
6HR MIN TEMP:  56; 6HR MAX TEMP:  71;

$$

WAZ026-027-041>044-520-521-300100-
EAST SLOPES

CITY           SKY/WX    TMP DP  RH WIND       PRES   REMARKS
OMAK           PTSUNNY   64  35  34 S13       30.08F
6HR MIN TEMP:  53; 6HR MAX TEMP:  66;

WENATCHEE      CLOUDY    65  35  33 VRB3      30.10F
6HR MIN TEMP:  54; 6HR MAX TEMP:  66;

ELLENSBURG     PTSUNNY   63  39  41 NW14      30.12F
6HR MIN TEMP:  57; 6HR MAX TEMP:  67;

YAKIMA         CLOUDY    68  38  33 SE3       30.13F
6HR MIN TEMP:  56; 6HR MAX TEMP:  70;

$$

WAZ028-034-035-300100-
COLUMBIA BASIN

CITY           SKY/WX    TMP DP  RH WIND       PRES   REMARKS
EPHRATA        CLOUDY    64  38  38 SW14      30.11F
6HR MIN TEMP:  51; 6HR MAX TEMP:  65;

MOSES LAKE     CLOUDY    66  37  34 SW10      30.13F
6HR MIN TEMP:  55; 6HR MAX TEMP:  67;

PASCO          MOSUNNY   72  29  20 SW13      30.12F
6HR MIN TEMP:  61; 6HR MAX TEMP:  74;

HERMISTON, OR  MOSUNNY   71  32  23 W8        30.12F
6HR MIN TEMP:  60; 6HR MAX TEMP:  71;

$$

WAZ036>038-300100-
NORTHEAST WASHINGTON

CITY           SKY/WX    TMP DP  RH WIND       PRES   REMARKS
SPOKANE GEIGER CLOUDY    58  35  42 SW14      30.14F
6HR MIN TEMP:  52; 6HR MAX TEMP:  59;

SPOKANE FELTS  CLOUDY    60  38  43 W10G18    30.15F
6HR MIN TEMP:  55; 6HR MAX TEMP:  62;

FAIRCHILD AFB  CLOUDY    57  35  43 SW13      30.14F
COEURDALENE,ID CLOUDY    57  39  51 SW13      30.15F
6HR MIN TEMP:  52; 6HR MAX TEMP:  59;

DEER PARK      CLOUDY    57  40  52 S9        30.14F
6HR MIN TEMP:  51; 6HR MAX TEMP:  59;

$$

WAZ029>033-300100-
SOUTHEAST WASHINGTON

CITY           SKY/WX    TMP DP  RH WIND       PRES   REMARKS
PULLMAN        MOSUNNY   60  36  40 W8        30.18F
6HR MIN TEMP:  50; 6HR MAX TEMP:  61;

LEWISTON, ID   MOSUNNY   67  38  34 CALM      30.14F
6HR MIN TEMP:  53; 6HR MAX TEMP:  68;

WALLA WALLA    MOSUNNY   68  36  30 NW6       30.14F
6HR MIN TEMP:  59; 6HR MAX TEMP:  69;

PENDLETON, OR  SUNNY     65  41  41 NW5       30.14S
6HR MIN TEMP:  57; 6HR MAX TEMP:  65;

$$


USA.gov is the U.S. government's official web portal to all federal, state and local government web resources and services.